Anzahl Datensätze: 271
min. Temperatur: 4.9 °C
max. Temperatur: 7.4 °C
max. Windgeschwindigkeit: 2.2 km/h
Niederschlagsumme: 0.2 mm
| Datum |
Zeit |
Temp °C |
Feuchte % |
Taupunkt °C |
Luftdruck hPa |
Wind km/h |
Windrichtung |
Strahlung w/m² |
Niederschlag mm |
|---|---|---|---|---|---|---|---|---|---|
| 13.12.2025 | 00:03 | 7.4 | 92 | 6.2 | 1025.1 | 0.0 | SSO | 0 | 0.0 |
| 13.12.2025 | 00:13 | 7.4 | 92 | 6.2 | 1025.3 | 0.0 | SSO | 0 | 0.0 |
| 13.12.2025 | 00:18 | 7.4 | 92 | 6.2 | 1025.3 | 0.0 | SSO | 0 | 0.0 |
| 13.12.2025 | 00:23 | 7.4 | 92 | 6.2 | 1025.4 | 0.0 | SSO | 0 | 0.0 |
| 13.12.2025 | 00:28 | 7.4 | 92 | 6.2 | 1025.4 | 0.0 | SO | 0 | 0.0 |
| 13.12.2025 | 00:33 | 7.4 | 92 | 6.2 | 1025.4 | 0.0 | S | 0 | 0.0 |
| 13.12.2025 | 00:38 | 7.4 | 92 | 6.2 | 1025.4 | 0.0 | S | 0 | 0.0 |
| 13.12.2025 | 00:43 | 7.4 | 92 | 6.2 | 1025.5 | 0.0 | S | 0 | 0.0 |
| 13.12.2025 | 00:53 | 7.4 | 92 | 6.2 | 1025.5 | 0.0 | S | 0 | 0.0 |
| 13.12.2025 | 00:58 | 7.4 | 92 | 6.2 | 1025.5 | 0.0 | S | 0 | 0.0 |
| 13.12.2025 | 01:04 | 7.4 | 92 | 6.2 | 1025.5 | 0.0 | S | 0 | 0.0 |
| 13.12.2025 | 01:09 | 7.4 | 92 | 6.2 | 1025.5 | 0.0 | S | 0 | 0.0 |
| 13.12.2025 | 01:19 | 7.4 | 92 | 6.2 | 1025.5 | 0.0 | OSO | 0 | 0.0 |
| 13.12.2025 | 01:24 | 7.4 | 92 | 6.2 | 1025.6 | 0.9 | OSO | 0 | 0.0 |
| 13.12.2025 | 01:29 | 7.4 | 92 | 6.2 | 1025.6 | 0.9 | SO | 0 | 0.0 |
| 13.12.2025 | 01:34 | 7.4 | 92 | 6.2 | 1025.7 | 0.0 | SSO | 0 | 0.0 |
| 13.12.2025 | 01:44 | 7.3 | 92 | 6.1 | 1025.8 | 0.0 | O | 0 | 0.0 |
| 13.12.2025 | 01:49 | 7.3 | 92 | 6.1 | 1025.9 | 0.0 | O | 0 | 0.0 |
| 13.12.2025 | 01:54 | 7.3 | 92 | 6.1 | 1025.9 | 0.0 | SO | 0 | 0.0 |
| 13.12.2025 | 02:04 | 7.3 | 92 | 6.1 | 1025.8 | 0.0 | SO | 0 | 0.0 |
| 13.12.2025 | 02:14 | 7.2 | 92 | 6.0 | 1025.9 | 0.0 | OSO | 0 | 0.0 |
| 13.12.2025 | 02:19 | 7.2 | 92 | 6.0 | 1025.9 | 0.4 | SO | 0 | 0.0 |
| 13.12.2025 | 02:24 | 7.1 | 92 | 5.9 | 1025.9 | 0.0 | SO | 0 | 0.0 |
| 13.12.2025 | 02:29 | 7.1 | 92 | 5.9 | 1025.9 | 0.4 | SO | 0 | 0.0 |
| 13.12.2025 | 02:34 | 7.0 | 92 | 5.8 | 1026.1 | 0.9 | SO | 0 | 0.0 |
| 13.12.2025 | 02:39 | 7.0 | 92 | 5.8 | 1026.1 | 0.0 | S | 0 | 0.0 |
| 13.12.2025 | 02:44 | 6.9 | 92 | 5.7 | 1026.1 | 0.9 | SSW | 0 | 0.0 |
| 13.12.2025 | 02:49 | 6.9 | 92 | 5.7 | 1026.1 | 0.0 | O | 0 | 0.0 |
| 13.12.2025 | 02:59 | 6.8 | 92 | 5.6 | 1026.2 | 0.4 | SSO | 0 | 0.0 |
| 13.12.2025 | 03:04 | 6.8 | 92 | 5.6 | 1026.1 | 0.9 | SO | 0 | 0.0 |
| 13.12.2025 | 03:09 | 6.7 | 92 | 5.5 | 1026.2 | 0.9 | SO | 0 | 0.0 |
| 13.12.2025 | 03:19 | 6.6 | 92 | 5.4 | 1026.2 | 0.0 | SO | 0 | 0.0 |
| 13.12.2025 | 03:24 | 6.6 | 92 | 5.4 | 1026.2 | 0.0 | S | 0 | 0.0 |
| 13.12.2025 | 03:29 | 6.5 | 92 | 5.3 | 1026.1 | 0.0 | S | 0 | 0.0 |
| 13.12.2025 | 03:39 | 6.4 | 92 | 5.2 | 1026.2 | 0.4 | S | 0 | 0.0 |
| 13.12.2025 | 03:44 | 6.4 | 92 | 5.2 | 1026.1 | 0.9 | SW | 0 | 0.0 |
| 13.12.2025 | 03:49 | 6.4 | 92 | 5.2 | 1026.1 | 0.4 | S | 0 | 0.0 |
| 13.12.2025 | 03:54 | 6.3 | 92 | 5.1 | 1026.1 | 0.4 | SO | 0 | 0.0 |
| 13.12.2025 | 04:00 | 6.3 | 92 | 5.1 | 1026.0 | 0.9 | OSO | 0 | 0.0 |
| 13.12.2025 | 04:05 | 6.3 | 92 | 5.1 | 1026.0 | 0.9 | OSO | 0 | 0.0 |
| 13.12.2025 | 04:10 | 6.2 | 92 | 5.0 | 1026.0 | 1.8 | S | 0 | 0.0 |
| 13.12.2025 | 04:15 | 6.1 | 92 | 4.9 | 1026.0 | 0.9 | S | 0 | 0.0 |
| 13.12.2025 | 04:20 | 6.1 | 92 | 4.9 | 1026.1 | 0.0 | SSW | 0 | 0.0 |
| 13.12.2025 | 04:25 | 6.0 | 92 | 4.8 | 1026.1 | 0.4 | S | 0 | 0.0 |
| 13.12.2025 | 04:30 | 6.0 | 92 | 4.8 | 1026.2 | 0.4 | S | 0 | 0.0 |
| 13.12.2025 | 04:35 | 6.0 | 92 | 4.8 | 1026.3 | 0.0 | S | 0 | 0.0 |
| 13.12.2025 | 04:40 | 6.0 | 92 | 4.8 | 1026.3 | 0.4 | S | 0 | 0.0 |
| 13.12.2025 | 04:45 | 6.0 | 92 | 4.8 | 1026.4 | 0.0 | S | 0 | 0.0 |
| 13.12.2025 | 04:50 | 6.0 | 92 | 4.8 | 1026.4 | 0.0 | S | 0 | 0.0 |
| 13.12.2025 | 04:55 | 6.0 | 92 | 4.8 | 1026.3 | 0.0 | SO | 0 | 0.0 |
| 13.12.2025 | 05:00 | 6.0 | 92 | 4.8 | 1026.3 | 0.0 | SSO | 0 | 0.0 |
| 13.12.2025 | 05:05 | 6.0 | 92 | 4.8 | 1026.4 | 0.0 | SSO | 0 | 0.0 |
| 13.12.2025 | 05:10 | 6.0 | 92 | 4.8 | 1026.3 | 0.0 | SSO | 0 | 0.0 |
| 13.12.2025 | 05:15 | 6.0 | 92 | 4.8 | 1026.3 | 0.0 | SSO | 0 | 0.0 |
| 13.12.2025 | 05:20 | 6.0 | 92 | 4.8 | 1026.3 | 0.0 | OSO | 0 | 0.0 |
| 13.12.2025 | 05:25 | 6.0 | 92 | 4.8 | 1026.3 | 0.0 | SO | 0 | 0.0 |
| 13.12.2025 | 05:30 | 6.0 | 92 | 4.8 | 1026.3 | 0.0 | O | 0 | 0.0 |
| 13.12.2025 | 05:35 | 6.0 | 92 | 4.8 | 1026.3 | 0.0 | O | 0 | 0.0 |
| 13.12.2025 | 05:40 | 6.0 | 92 | 4.8 | 1026.4 | 0.0 | O | 0 | 0.0 |
| 13.12.2025 | 05:45 | 6.0 | 92 | 4.8 | 1026.4 | 1.3 | SSO | 0 | 0.0 |
| 13.12.2025 | 05:50 | 6.1 | 92 | 4.9 | 1026.5 | 0.0 | SSO | 0 | 0.0 |
| 13.12.2025 | 05:55 | 6.1 | 92 | 4.9 | 1026.5 | 0.4 | SSO | 0 | 0.0 |
| 13.12.2025 | 06:00 | 6.1 | 92 | 4.9 | 1026.5 | 0.0 | S | 0 | 0.0 |
| 13.12.2025 | 06:05 | 6.0 | 92 | 4.8 | 1026.5 | 0.0 | S | 0 | 0.0 |
| 13.12.2025 | 06:10 | 6.0 | 92 | 4.8 | 1026.5 | 0.0 | S | 0 | 0.0 |
| 13.12.2025 | 06:15 | 6.0 | 92 | 4.8 | 1026.5 | 0.0 | S | 0 | 0.0 |
| 13.12.2025 | 06:20 | 6.0 | 92 | 4.8 | 1026.5 | 0.0 | S | 0 | 0.0 |
| 13.12.2025 | 06:25 | 6.0 | 92 | 4.8 | 1026.5 | 0.4 | SW | 0 | 0.0 |
| 13.12.2025 | 06:30 | 6.0 | 92 | 4.8 | 1026.6 | 0.4 | SSW | 0 | 0.0 |
| 13.12.2025 | 06:35 | 6.0 | 92 | 4.8 | 1026.6 | 0.4 | SSW | 0 | 0.0 |
| 13.12.2025 | 06:41 | 6.0 | 92 | 4.8 | 1026.7 | 0.4 | S | 0 | 0.0 |
| 13.12.2025 | 06:46 | 6.0 | 92 | 4.8 | 1026.7 | 0.4 | SW | 0 | 0.0 |
| 13.12.2025 | 06:51 | 5.9 | 92 | 4.7 | 1026.8 | 0.9 | WSW | 0 | 0.0 |
| 13.12.2025 | 06:56 | 5.9 | 92 | 4.7 | 1026.8 | 0.9 | WSW | 0 | 0.0 |
| 13.12.2025 | 07:01 | 5.9 | 92 | 4.7 | 1026.9 | 0.9 | WSW | 0 | 0.0 |
| 13.12.2025 | 07:06 | 5.9 | 92 | 4.7 | 1027.0 | 1.3 | WSW | 0 | 0.0 |
| 13.12.2025 | 07:11 | 5.8 | 92 | 4.6 | 1027.1 | 0.4 | WSW | 0 | 0.0 |
| 13.12.2025 | 07:16 | 5.8 | 92 | 4.6 | 1027.0 | 0.4 | WSW | 0 | 0.0 |
| 13.12.2025 | 07:21 | 5.8 | 92 | 4.6 | 1027.1 | 0.4 | W | 0 | 0.0 |
| 13.12.2025 | 07:26 | 5.8 | 92 | 4.6 | 1027.0 | 0.0 | W | 0 | 0.0 |
| 13.12.2025 | 07:31 | 5.8 | 92 | 4.6 | 1027.0 | 0.4 | W | 0 | 0.0 |
| 13.12.2025 | 07:36 | 5.8 | 92 | 4.6 | 1027.1 | 0.4 | WSW | 0 | 0.0 |
| 13.12.2025 | 07:41 | 5.7 | 92 | 4.5 | 1027.2 | 1.8 | WSW | 0 | 0.0 |
| 13.12.2025 | 07:46 | 5.6 | 92 | 4.4 | 1027.3 | 0.0 | W | 0 | 0.0 |
| 13.12.2025 | 07:51 | 5.6 | 92 | 4.4 | 1027.3 | 0.9 | W | 0 | 0.0 |
| 13.12.2025 | 07:56 | 5.6 | 92 | 4.4 | 1027.5 | 0.0 | WSW | 0 | 0.0 |
| 13.12.2025 | 08:01 | 5.7 | 92 | 4.5 | 1027.4 | 0.0 | NW | 0 | 0.0 |
| 13.12.2025 | 08:06 | 5.7 | 92 | 4.5 | 1027.5 | 0.4 | NW | 0 | 0.0 |
| 13.12.2025 | 08:11 | 5.6 | 92 | 4.4 | 1027.5 | 0.0 | W | 0 | 0.0 |
| 13.12.2025 | 08:16 | 5.6 | 92 | 4.4 | 1027.4 | 0.0 | W | 0 | 0.0 |
| 13.12.2025 | 08:21 | 5.6 | 92 | 4.4 | 1027.6 | 0.4 | W | 0 | 0.0 |
| 13.12.2025 | 08:26 | 5.6 | 92 | 4.4 | 1027.7 | 0.4 | NW | 0 | 0.0 |
| 13.12.2025 | 08:31 | 5.6 | 92 | 4.4 | 1027.7 | 0.4 | NW | 0 | 0.2 |
| 13.12.2025 | 08:36 | 5.6 | 92 | 4.4 | 1027.7 | 0.4 | WNW | 0 | 0.2 |
| 13.12.2025 | 08:41 | 5.5 | 92 | 4.3 | 1027.8 | 0.0 | SSW | 5 | 0.2 |
| 13.12.2025 | 08:46 | 5.5 | 92 | 4.3 | 1027.7 | 0.4 | OSO | 5 | 0.2 |
| 13.12.2025 | 08:51 | 5.5 | 92 | 4.3 | 1027.7 | 0.0 | OSO | 5 | 0.2 |
| 13.12.2025 | 08:56 | 5.5 | 92 | 4.3 | 1027.8 | 0.0 | OSO | 7 | 0.2 |
| 13.12.2025 | 09:01 | 5.5 | 92 | 4.3 | 1027.9 | 0.0 | OSO | 7 | 0.2 |
| 13.12.2025 | 09:06 | 5.5 | 92 | 4.3 | 1028.0 | 0.0 | WNW | 9 | 0.2 |
| 13.12.2025 | 09:11 | 5.5 | 92 | 4.3 | 1028.0 | 0.0 | WNW | 11 | 0.2 |
| 13.12.2025 | 09:16 | 5.6 | 92 | 4.4 | 1028.0 | 0.0 | WNW | 12 | 0.2 |
| 13.12.2025 | 09:21 | 5.6 | 92 | 4.4 | 1028.1 | 0.0 | WNW | 14 | 0.2 |
| 13.12.2025 | 09:26 | 5.6 | 92 | 4.4 | 1028.1 | 0.0 | WNW | 14 | 0.2 |
| 13.12.2025 | 09:31 | 5.6 | 92 | 4.4 | 1028.1 | 0.4 | NW | 16 | 0.2 |
| 13.12.2025 | 09:36 | 5.6 | 92 | 4.4 | 1028.1 | 0.4 | WNW | 16 | 0.2 |
| 13.12.2025 | 09:42 | 5.6 | 92 | 4.4 | 1028.1 | 0.4 | WNW | 18 | 0.2 |
| 13.12.2025 | 09:47 | 5.6 | 92 | 4.4 | 1028.0 | 0.0 | WNW | 19 | 0.2 |
| 13.12.2025 | 09:52 | 5.6 | 92 | 4.4 | 1028.2 | 0.0 | WNW | 18 | 0.2 |
| 13.12.2025 | 09:57 | 5.5 | 92 | 4.3 | 1028.3 | 0.4 | WNW | 19 | 0.2 |
| 13.12.2025 | 10:02 | 5.5 | 92 | 4.3 | 1028.3 | 1.3 | W | 21 | 0.2 |
| 13.12.2025 | 10:07 | 5.4 | 92 | 4.2 | 1028.4 | 0.4 | W | 23 | 0.2 |
| 13.12.2025 | 10:12 | 5.4 | 92 | 4.2 | 1028.5 | 0.0 | W | 26 | 0.2 |
| 13.12.2025 | 10:17 | 5.4 | 92 | 4.2 | 1028.6 | 0.0 | WSW | 26 | 0.2 |
| 13.12.2025 | 10:22 | 5.5 | 92 | 4.3 | 1028.5 | 0.4 | W | 26 | 0.2 |
| 13.12.2025 | 10:27 | 5.5 | 92 | 4.3 | 1028.5 | 0.0 | W | 28 | 0.2 |
| 13.12.2025 | 10:32 | 5.5 | 92 | 4.3 | 1028.5 | 0.0 | W | 28 | 0.2 |
| 13.12.2025 | 10:37 | 5.5 | 92 | 4.3 | 1028.6 | 0.0 | W | 28 | 0.2 |
| 13.12.2025 | 10:42 | 5.5 | 92 | 4.3 | 1028.7 | 0.0 | NO | 28 | 0.2 |
| 13.12.2025 | 10:47 | 5.5 | 92 | 4.3 | 1028.7 | 0.0 | NO | 28 | 0.2 |
| 13.12.2025 | 10:52 | 5.6 | 92 | 4.4 | 1028.9 | 0.4 | SSW | 30 | 0.2 |
| 13.12.2025 | 10:57 | 5.6 | 92 | 4.4 | 1028.9 | 0.4 | SW | 32 | 0.2 |
| 13.12.2025 | 11:02 | 5.6 | 92 | 4.4 | 1028.8 | 0.0 | W | 32 | 0.2 |
| 13.12.2025 | 11:07 | 5.5 | 92 | 4.3 | 1028.7 | 0.0 | NNW | 37 | 0.2 |
| 13.12.2025 | 11:12 | 5.4 | 92 | 4.2 | 1028.7 | 0.4 | NW | 37 | 0.2 |
| 13.12.2025 | 11:17 | 5.4 | 92 | 4.2 | 1028.7 | 0.0 | NW | 39 | 0.2 |
| 13.12.2025 | 11:22 | 5.4 | 92 | 4.2 | 1028.9 | 0.0 | NNW | 37 | 0.2 |
| 13.12.2025 | 11:27 | 5.4 | 92 | 4.2 | 1029.0 | 0.4 | WSW | 33 | 0.2 |
| 13.12.2025 | 11:32 | 5.4 | 92 | 4.2 | 1028.8 | 0.0 | WNW | 40 | 0.2 |
| 13.12.2025 | 11:37 | 5.4 | 92 | 4.2 | 1028.7 | 1.3 | WSW | 39 | 0.2 |
| 13.12.2025 | 11:42 | 5.3 | 92 | 4.1 | 1028.6 | 0.0 | W | 42 | 0.2 |
| 13.12.2025 | 11:47 | 5.4 | 92 | 4.2 | 1028.5 | 0.4 | W | 46 | 0.2 |
| 13.12.2025 | 11:52 | 5.4 | 92 | 4.2 | 1028.5 | 0.4 | W | 44 | 0.2 |
| 13.12.2025 | 11:57 | 5.3 | 92 | 4.1 | 1028.5 | 0.4 | WSW | 42 | 0.2 |
| 13.12.2025 | 12:02 | 5.3 | 92 | 4.1 | 1028.5 | 0.4 | WSW | 46 | 0.2 |
| 13.12.2025 | 12:07 | 5.4 | 92 | 4.2 | 1028.4 | 1.3 | S | 49 | 0.2 |
| 13.12.2025 | 12:12 | 5.3 | 92 | 4.1 | 1028.5 | 1.3 | WSW | 53 | 0.2 |
| 13.12.2025 | 12:17 | 5.2 | 92 | 4.0 | 1028.5 | 0.4 | S | 56 | 0.2 |
| 13.12.2025 | 12:22 | 5.2 | 92 | 4.0 | 1028.4 | 0.0 | SSW | 51 | 0.2 |
| 13.12.2025 | 12:27 | 5.3 | 92 | 4.1 | 1028.4 | 0.4 | S | 51 | 0.2 |
| 13.12.2025 | 12:32 | 5.1 | 92 | 3.9 | 1028.6 | 0.9 | WSW | 47 | 0.2 |
| 13.12.2025 | 12:37 | 5.1 | 92 | 3.9 | 1028.8 | 0.0 | WSW | 42 | 0.2 |
| 13.12.2025 | 12:43 | 5.1 | 92 | 3.9 | 1028.7 | 0.9 | WSW | 44 | 0.2 |
| 13.12.2025 | 12:48 | 5.1 | 92 | 3.9 | 1028.8 | 1.3 | WSW | 46 | 0.2 |
| 13.12.2025 | 12:53 | 5.0 | 92 | 3.8 | 1028.6 | 0.0 | NW | 47 | 0.2 |
| 13.12.2025 | 12:58 | 5.0 | 92 | 3.8 | 1028.8 | 0.9 | WSW | 47 | 0.2 |
| 13.12.2025 | 13:03 | 4.9 | 92 | 3.7 | 1028.8 | 0.0 | W | 39 | 0.2 |
| 13.12.2025 | 13:08 | 4.9 | 92 | 3.7 | 1028.8 | 0.9 | W | 37 | 0.2 |
| 13.12.2025 | 13:13 | 4.9 | 92 | 3.7 | 1028.7 | 0.9 | NW | 40 | 0.2 |
| 13.12.2025 | 13:18 | 4.9 | 92 | 3.7 | 1028.6 | 0.0 | W | 40 | 0.2 |
| 13.12.2025 | 13:23 | 4.9 | 92 | 3.7 | 1028.5 | 0.0 | WNW | 39 | 0.2 |
| 13.12.2025 | 13:28 | 5.0 | 92 | 3.8 | 1028.5 | 0.0 | NW | 35 | 0.2 |
| 13.12.2025 | 13:33 | 5.0 | 92 | 3.8 | 1028.4 | 0.4 | WSW | 35 | 0.2 |
| 13.12.2025 | 13:38 | 5.0 | 92 | 3.8 | 1028.3 | 0.0 | WSW | 40 | 0.2 |
| 13.12.2025 | 13:43 | 5.0 | 92 | 3.8 | 1028.3 | 0.0 | NNW | 46 | 0.2 |
| 13.12.2025 | 13:48 | 5.0 | 92 | 3.8 | 1028.3 | 0.0 | O | 67 | 0.2 |
| 13.12.2025 | 13:53 | 5.1 | 92 | 3.9 | 1028.4 | 0.4 | O | 49 | 0.2 |
| 13.12.2025 | 13:58 | 5.1 | 92 | 3.9 | 1028.3 | 0.0 | O | 51 | 0.2 |
| 13.12.2025 | 14:03 | 5.2 | 92 | 4.0 | 1028.3 | 0.4 | O | 54 | 0.2 |
| 13.12.2025 | 14:08 | 5.2 | 92 | 4.0 | 1028.2 | 0.0 | O | 51 | 0.2 |
| 13.12.2025 | 14:13 | 5.3 | 92 | 4.1 | 1028.2 | 0.4 | ONO | 62 | 0.2 |
| 13.12.2025 | 14:18 | 5.3 | 92 | 4.1 | 1028.0 | 0.4 | O | 63 | 0.2 |
| 13.12.2025 | 14:23 | 5.4 | 92 | 4.2 | 1028.1 | 0.0 | OSO | 44 | 0.2 |
| 13.12.2025 | 14:28 | 5.4 | 92 | 4.2 | 1028.2 | 0.0 | OSO | 69 | 0.2 |
| 13.12.2025 | 14:33 | 5.4 | 92 | 4.2 | 1028.2 | 0.0 | O | 53 | 0.2 |
| 13.12.2025 | 14:38 | 5.5 | 92 | 4.3 | 1028.2 | 0.4 | O | 70 | 0.2 |
| 13.12.2025 | 14:43 | 5.5 | 92 | 4.3 | 1028.2 | 0.0 | O | 76 | 0.2 |
| 13.12.2025 | 14:48 | 5.5 | 92 | 4.3 | 1028.2 | 0.0 | O | 72 | 0.2 |
| 13.12.2025 | 14:53 | 5.5 | 92 | 4.3 | 1028.2 | 0.0 | O | 60 | 0.2 |
| 13.12.2025 | 15:03 | 5.6 | 92 | 4.4 | 1028.3 | 0.0 | O | 46 | 0.2 |
| 13.12.2025 | 15:08 | 5.6 | 92 | 4.4 | 1028.4 | 0.0 | O | 39 | 0.2 |
| 13.12.2025 | 15:13 | 5.5 | 92 | 4.3 | 1028.4 | 0.0 | O | 46 | 0.2 |
| 13.12.2025 | 15:18 | 5.5 | 92 | 4.3 | 1028.4 | 0.0 | O | 30 | 0.2 |
| 13.12.2025 | 15:24 | 5.5 | 92 | 4.3 | 1028.5 | 0.0 | O | 25 | 0.2 |
| 13.12.2025 | 15:29 | 5.5 | 92 | 4.3 | 1028.6 | 0.0 | O | 16 | 0.2 |
| 13.12.2025 | 15:34 | 5.5 | 92 | 4.3 | 1028.6 | 0.0 | SO | 18 | 0.2 |
| 13.12.2025 | 15:44 | 5.5 | 92 | 4.3 | 1028.6 | 0.0 | SSW | 12 | 0.2 |
| 13.12.2025 | 15:49 | 5.5 | 92 | 4.3 | 1028.4 | 0.0 | SSW | 12 | 0.2 |
| 13.12.2025 | 15:54 | 5.5 | 92 | 4.3 | 1028.4 | 0.0 | SSW | 11 | 0.2 |
| 13.12.2025 | 15:59 | 5.6 | 92 | 4.4 | 1028.3 | 0.0 | S | 9 | 0.2 |
| 13.12.2025 | 16:09 | 5.6 | 92 | 4.4 | 1028.1 | 0.0 | S | 5 | 0.2 |
| 13.12.2025 | 16:14 | 5.6 | 92 | 4.4 | 1028.2 | 0.0 | ONO | 5 | 0.2 |
| 13.12.2025 | 16:19 | 5.6 | 92 | 4.4 | 1028.3 | 0.4 | S | 0 | 0.2 |
| 13.12.2025 | 16:24 | 5.5 | 92 | 4.3 | 1028.4 | 0.0 | S | 0 | 0.2 |
| 13.12.2025 | 16:29 | 5.5 | 92 | 4.3 | 1028.4 | 0.0 | S | 0 | 0.2 |
| 13.12.2025 | 16:34 | 5.5 | 92 | 4.3 | 1028.2 | 0.0 | SO | 0 | 0.2 |
| 13.12.2025 | 16:39 | 5.5 | 92 | 4.3 | 1028.2 | 0.4 | SO | 0 | 0.2 |
| 13.12.2025 | 16:44 | 5.5 | 92 | 4.3 | 1028.3 | 0.0 | SO | 0 | 0.2 |
| 13.12.2025 | 16:49 | 5.5 | 92 | 4.3 | 1028.3 | 0.0 | SO | 0 | 0.2 |
| 13.12.2025 | 16:59 | 5.5 | 92 | 4.3 | 1028.4 | 0.0 | SO | 0 | 0.2 |
| 13.12.2025 | 17:04 | 5.5 | 92 | 4.3 | 1028.3 | 0.0 | SO | 0 | 0.2 |
| 13.12.2025 | 17:09 | 5.5 | 92 | 4.3 | 1028.3 | 0.0 | SO | 0 | 0.2 |
| 13.12.2025 | 17:14 | 5.5 | 92 | 4.3 | 1028.4 | 0.0 | SO | 0 | 0.2 |
| 13.12.2025 | 17:19 | 5.5 | 92 | 4.3 | 1028.3 | 0.0 | SO | 0 | 0.2 |
| 13.12.2025 | 17:24 | 5.5 | 92 | 4.3 | 1028.5 | 0.0 | SO | 0 | 0.2 |
| 13.12.2025 | 17:29 | 5.5 | 92 | 4.3 | 1028.5 | 0.0 | SO | 0 | 0.2 |
| 13.12.2025 | 17:34 | 5.5 | 92 | 4.3 | 1028.5 | 0.0 | SO | 0 | 0.2 |
| 13.12.2025 | 17:39 | 5.5 | 92 | 4.3 | 1028.6 | 0.0 | SO | 0 | 0.2 |
| 13.12.2025 | 17:49 | 5.5 | 92 | 4.3 | 1028.7 | 0.0 | NW | 0 | 0.2 |
| 13.12.2025 | 17:59 | 5.5 | 92 | 4.3 | 1028.7 | 0.0 | NW | 0 | 0.2 |
| 13.12.2025 | 18:04 | 5.6 | 92 | 4.4 | 1028.7 | 0.0 | NW | 0 | 0.2 |
| 13.12.2025 | 18:09 | 5.6 | 92 | 4.4 | 1028.7 | 0.0 | NW | 0 | 0.2 |
| 13.12.2025 | 18:15 | 5.6 | 92 | 4.4 | 1028.6 | 0.0 | NW | 0 | 0.2 |
| 13.12.2025 | 18:20 | 5.6 | 92 | 4.4 | 1028.7 | 0.0 | NW | 0 | 0.2 |
| 13.12.2025 | 18:25 | 5.6 | 92 | 4.4 | 1028.7 | 0.0 | NW | 0 | 0.2 |
| 13.12.2025 | 18:30 | 5.6 | 92 | 4.4 | 1028.6 | 0.0 | NW | 0 | 0.2 |
| 13.12.2025 | 18:35 | 5.6 | 92 | 4.4 | 1028.5 | 0.0 | NW | 0 | 0.2 |
| 13.12.2025 | 18:40 | 5.6 | 92 | 4.4 | 1028.6 | 0.0 | NW | 0 | 0.2 |
| 13.12.2025 | 18:45 | 5.6 | 92 | 4.4 | 1028.7 | 0.0 | NW | 0 | 0.2 |
| 13.12.2025 | 18:50 | 5.6 | 92 | 4.4 | 1028.8 | 0.0 | NW | 0 | 0.2 |
| 13.12.2025 | 18:55 | 5.6 | 92 | 4.4 | 1028.8 | 0.0 | NW | 0 | 0.2 |
| 13.12.2025 | 19:00 | 5.6 | 92 | 4.4 | 1028.9 | 0.0 | NW | 0 | 0.2 |
| 13.12.2025 | 19:05 | 5.6 | 92 | 4.4 | 1028.8 | 0.0 | NW | 0 | 0.2 |
| 13.12.2025 | 19:10 | 5.7 | 92 | 4.5 | 1028.9 | 0.0 | NW | 0 | 0.2 |
| 13.12.2025 | 19:15 | 5.6 | 92 | 4.4 | 1028.9 | 0.0 | NW | 0 | 0.2 |
| 13.12.2025 | 19:20 | 5.7 | 92 | 4.5 | 1028.9 | 0.0 | NW | 0 | 0.2 |
| 13.12.2025 | 19:25 | 5.7 | 92 | 4.5 | 1029.0 | 0.0 | NW | 0 | 0.2 |
| 13.12.2025 | 19:30 | 5.7 | 92 | 4.5 | 1028.9 | 0.0 | NNO | 0 | 0.2 |
| 13.12.2025 | 19:35 | 5.7 | 92 | 4.5 | 1029.0 | 0.0 | NNO | 0 | 0.2 |
| 13.12.2025 | 19:40 | 5.7 | 92 | 4.5 | 1029.0 | 0.0 | NNO | 0 | 0.2 |
| 13.12.2025 | 19:45 | 5.8 | 92 | 4.6 | 1029.0 | 0.0 | NNO | 0 | 0.2 |
| 13.12.2025 | 19:50 | 5.8 | 92 | 4.6 | 1029.0 | 0.0 | NNO | 0 | 0.2 |
| 13.12.2025 | 19:55 | 5.8 | 92 | 4.6 | 1029.1 | 0.0 | O | 0 | 0.2 |
| 13.12.2025 | 20:00 | 5.7 | 92 | 4.5 | 1029.1 | 0.0 | O | 0 | 0.2 |
| 13.12.2025 | 20:05 | 5.7 | 92 | 4.5 | 1029.1 | 0.0 | O | 0 | 0.2 |
| 13.12.2025 | 20:10 | 5.7 | 92 | 4.5 | 1029.1 | 0.0 | O | 0 | 0.2 |
| 13.12.2025 | 20:15 | 5.7 | 92 | 4.5 | 1029.1 | 0.0 | O | 0 | 0.2 |
| 13.12.2025 | 20:20 | 5.7 | 92 | 4.5 | 1029.0 | 0.0 | O | 0 | 0.2 |
| 13.12.2025 | 20:25 | 5.7 | 92 | 4.5 | 1029.0 | 0.0 | O | 0 | 0.2 |
| 13.12.2025 | 20:30 | 5.7 | 92 | 4.5 | 1029.1 | 0.0 | OSO | 0 | 0.2 |
| 13.12.2025 | 20:35 | 5.7 | 92 | 4.5 | 1029.1 | 0.0 | OSO | 0 | 0.2 |
| 13.12.2025 | 20:40 | 5.7 | 92 | 4.5 | 1029.1 | 0.0 | OSO | 0 | 0.2 |
| 13.12.2025 | 20:45 | 5.6 | 92 | 4.4 | 1029.1 | 0.0 | OSO | 0 | 0.2 |
| 13.12.2025 | 20:50 | 5.6 | 92 | 4.4 | 1029.1 | 0.0 | OSO | 0 | 0.2 |
| 13.12.2025 | 20:55 | 5.6 | 92 | 4.4 | 1029.1 | 0.0 | OSO | 0 | 0.2 |
| 13.12.2025 | 21:00 | 5.6 | 92 | 4.4 | 1029.1 | 0.0 | OSO | 0 | 0.2 |
| 13.12.2025 | 21:05 | 5.7 | 92 | 4.5 | 1029.2 | 0.0 | OSO | 0 | 0.2 |
| 13.12.2025 | 21:11 | 5.6 | 92 | 4.4 | 1029.1 | 0.0 | O | 0 | 0.2 |
| 13.12.2025 | 21:16 | 5.6 | 92 | 4.4 | 1029.0 | 0.0 | O | 0 | 0.2 |
| 13.12.2025 | 21:21 | 5.6 | 92 | 4.4 | 1029.0 | 0.0 | O | 0 | 0.2 |
| 13.12.2025 | 21:26 | 5.6 | 92 | 4.4 | 1029.0 | 0.0 | O | 0 | 0.2 |
| 13.12.2025 | 21:31 | 5.6 | 92 | 4.4 | 1029.0 | 0.0 | O | 0 | 0.2 |
| 13.12.2025 | 21:36 | 5.7 | 92 | 4.5 | 1029.0 | 0.0 | O | 0 | 0.2 |
| 13.12.2025 | 21:41 | 5.7 | 92 | 4.5 | 1029.0 | 0.0 | OSO | 0 | 0.2 |
| 13.12.2025 | 21:46 | 5.6 | 92 | 4.4 | 1029.0 | 0.0 | OSO | 0 | 0.2 |
| 13.12.2025 | 21:51 | 5.7 | 92 | 4.5 | 1028.9 | 0.0 | OSO | 0 | 0.2 |
| 13.12.2025 | 21:56 | 5.6 | 92 | 4.4 | 1028.9 | 0.0 | OSO | 0 | 0.2 |
| 13.12.2025 | 22:01 | 5.6 | 92 | 4.4 | 1028.9 | 0.0 | OSO | 0 | 0.2 |
| 13.12.2025 | 22:06 | 5.6 | 92 | 4.4 | 1029.0 | 0.0 | OSO | 0 | 0.2 |
| 13.12.2025 | 22:11 | 5.6 | 92 | 4.4 | 1028.9 | 0.0 | O | 0 | 0.2 |
| 13.12.2025 | 22:16 | 5.6 | 92 | 4.4 | 1029.0 | 0.0 | NO | 0 | 0.2 |
| 13.12.2025 | 22:21 | 5.6 | 92 | 4.4 | 1029.0 | 0.0 | NO | 0 | 0.2 |
| 13.12.2025 | 22:26 | 5.6 | 92 | 4.4 | 1029.0 | 0.4 | OSO | 0 | 0.2 |
| 13.12.2025 | 22:31 | 5.6 | 92 | 4.4 | 1029.0 | 0.4 | ONO | 0 | 0.2 |
| 13.12.2025 | 22:36 | 5.5 | 92 | 4.3 | 1029.1 | 0.4 | O | 0 | 0.2 |
| 13.12.2025 | 22:41 | 5.5 | 92 | 4.3 | 1029.0 | 0.4 | NO | 0 | 0.2 |
| 13.12.2025 | 22:46 | 5.5 | 92 | 4.3 | 1029.0 | 0.0 | NO | 0 | 0.2 |
| 13.12.2025 | 22:51 | 5.5 | 92 | 4.3 | 1028.9 | 0.4 | NO | 0 | 0.2 |
| 13.12.2025 | 22:56 | 5.5 | 92 | 4.3 | 1028.9 | 0.0 | NO | 0 | 0.2 |
| 13.12.2025 | 23:01 | 5.5 | 92 | 4.3 | 1028.8 | 0.0 | NO | 0 | 0.2 |
| 13.12.2025 | 23:06 | 5.5 | 92 | 4.3 | 1028.7 | 0.9 | OSO | 0 | 0.2 |
| 13.12.2025 | 23:11 | 5.5 | 92 | 4.3 | 1028.8 | 0.0 | OSO | 0 | 0.2 |
| 13.12.2025 | 23:16 | 5.5 | 92 | 4.3 | 1028.7 | 0.0 | OSO | 0 | 0.2 |
| 13.12.2025 | 23:21 | 5.5 | 92 | 4.3 | 1028.8 | 0.0 | OSO | 0 | 0.2 |
| 13.12.2025 | 23:26 | 5.5 | 92 | 4.3 | 1028.8 | 0.0 | OSO | 0 | 0.2 |
| 13.12.2025 | 23:31 | 5.5 | 92 | 4.3 | 1028.9 | 0.0 | OSO | 0 | 0.2 |
| 13.12.2025 | 23:36 | 5.4 | 92 | 4.2 | 1028.9 | 0.0 | OSO | 0 | 0.2 |
| 13.12.2025 | 23:41 | 5.4 | 92 | 4.2 | 1028.9 | 0.0 | OSO | 0 | 0.2 |
| 13.12.2025 | 23:46 | 5.4 | 92 | 4.2 | 1028.9 | 0.0 | OSO | 0 | 0.2 |
| 13.12.2025 | 23:51 | 5.4 | 92 | 4.2 | 1029.0 | 0.0 | OSO | 0 | 0.2 |
| 13.12.2025 | 23:57 | 5.4 | 92 | 4.2 | 1028.9 | 0.0 | OSO | 0 | 0.2 |